Temperature
18 18 18 18 18 18 18 18 18 18 18 18 18 18 18 18 18 18 18 17 17 17 17 17 17 17 17 17 17 17 16 16 16 16 16 16 16 16 16 16 16 15 15
18 18 18 18 18 18 18 18 18 18 18 18 18 18 18 18 18 18 18 17 17 17 17 17 17 17 17 17 17 17 16 16 16 16 16 16 16 16 16 16 15 15 15
18 18 18 18 18 18 18 18 18 18 18 18 18 18 18 18 18 17 17 17 17 17 17 17 17 17 17 17 17 17 17 16 16 16 16 16 16 16 16 16 15 15 15
18 18 18 18 18 18 18 18 18 17 18 18 18 18 18 18 17 17 17 17 17 17 17 17 17 17 17 17 17 17 17 16 16 16 16 16 16 16 16 15 15 15 15
18 18 18 18 18 18 18 18 18 18 18 18 18 18 17 18 17 17 17 17 17 17 17 17 17 17 17 17 17 17 16 16 16 16 16 16 16 16 16 16 15 15 15
18 18 18 18 18 18 18 18 18 18 18 18 18 18 18 18 18 18 17 17 17 17 17 17 17 17 17 17 17 16 16 16 16 16 16 16 16 16 16 15 15 15 15
18 18 18 18 18 18 18 18 18 18 18 18 17 18 18 18 18 18 17 17 17 17 17 17 17 17 17 17 16 16 16 16 16 16 16 16 16 16 15 15 15 15 15
18 18 18 18 18 18 18 18 18 18 18 18 17 17 17 18 18 17 17 17 17 17 17 17 17 17 17 16 16 16 16 16 16 16 16 16 16 15 15 15 15 15 15
18 18 18 18 18 18 18 18 18 18 18 18 17 17 17 18 18 18 17 17 17 17 17 17 17 17 17 16 16 16 16 16 16 16 16 16 15 15 15 15 15 15 15
18 18 18 18 18 18 18 18 18 18 18 18 17 17 17 17 17 17 17 17 17 17 17 17 17 17 16 16 16 16 16 16 16 16 15 15 15 15 15 15 15 15 14
18 18 18 18 18 18 18 18 18 18 18 18 18 18 17 17 17 17 17 17 17 17 17 17 16 16 16 16 16 16 16 16 16 16 15 15 15 15 15 14 14 14 14
18 18 18 18 18 18 18 18 18 18 18 18 18 18 17 17 17 17 17 17 17 17 16 16 16 16 16 16 16 16 16 16 15 15 15 15 15 15 14 14 14 14 14
18 18 18 18 18 18 18 18 18 18 17 17 18 17 17 17 17 17 17 17 16 16 16 16 16 16 16 16 16 16 15 15 15 15 15 15 14 14 14 14 14 14 13
18 18 18 18 18 17 17 18 17 17 17 17 17 17 17 17 17 17 17 17 16 16 16 16 16 15 15 15 15 15 15 15 15 15 14 14 14 14 14 13 13 13 13
18 17 17 17 17 17 17 17 17 17 17 17 17 17 17 17 17 17 17 16 16 15 15 15 15 15 15 15 15 15 15 14 14 14 14 14 14 13 13 13 13 13 12
17 17 17 17 17 17 17 17 17 17 17 17 17 17 17 17 17 17 16 16 16 16 15 15 15 15 14 14 14 14 14 14 14 14 13 13 13 13 13 12 12 12 12
17 17 17 17 17 17 17 17 17 17 17 17 17 16 16 16 16 16 16 16 16 16 15 15 14 14 14 14 14 14 13 13 13 13 13 13 12 12 12 12 12 11 11
17 17 17 17 17 17 17 17 17 17 16 16 16 16 16 16 16 16 16 16 16 15 15 15 14 14 13 13 13 13 13 12 12 12 12 12 12 11 11 11 11 11 11
17 17 17 17 17 17 16 16 16 16 16 16 16 16 16 16 16 16 15 15 15 15 15 15 14 13 13 13 13 12 12 12 12 11 11 11 11 11 11 11 10 10 10
17 17 17 17 17 16 16 16 16 16 16 16 16 15 15 15 15 15 15 15 15 15 14 14 14 13 13 12 12 12 11 11 11 11 11 10 10 10 10 10 10 9 9
17 17 16 16 16 16 16 16 16 16 15 15 15 15 15 15 15 15 15 14 14 14 14 14 13 13 12 12 12 11 11 11 10 10 10 10 10 9 9 9 9 9 9
17 16 16 16 16 16 15 15 15 15 15 15 15 15 15 14 14 14 14 14 14 14 13 13 13 12 12 12 11 11 11 10 9 9 9 9 9 9 9 9 8 8 8
16 16 16 16 16 16 15 15 15 15 15 15 15 14 14 14 14 14 14 14 13 13 13 13 13 12 12 12 11 11 10 10 10 9 9 9 8 8 8 8 8 8 7
16 16 16 16 15 15 15 15 15 15 14 14 14 14 14 14 13 13 13 13 13 13 12 12 12 12 11 11 11 11 10 10 9 9 9 8 8 8 8 8 7 7 7
16 16 15 15 15 15 15 14 14 14 14 14 14 13 13 13 13 13 13 12 12 12 12 11 11 11 11 10 10 10 10 9 9 9 8 8 8 8 8 7 7 7 7
15 15 15 15 14 14 14 14 14 14 14 13 13 13 13 12 12 12 12 12 12 12 11 11 11 10 10 10 10 10 10 9 9 8 8 8 8 8 7 7 7 7 6
Wind_Speed
5 5 4 5 5 5 5 3 2 2 2 2 4 6 6 9 10 11 12 14 14 14 13 13 12 12 12 11 11 10 10 9 9 9 9 9 9 8 8 8 8 8 8
7 5 4 4 5 6 6 5 4 2 2 2 2 5 7 9 10 11 12 13 15 14 13 13 13 12 12 11 11 11 11 10 10 10 10 10 9 9 8 8 8 8 8
9 6 4 3 5 7 6 4 3 2 2 2 2 3 6 7 9 11 12 12 13 14 14 13 13 13 13 12 12 12 11 11 11 11 11 10 10 10 9 9 9 9 8
10 7 4 3 6 7 5 3 2 2 1 1 2 2 3 5 7 9 11 11 12 11 13 13 13 12 12 12 13 13 13 12 12 12 12 12 11 10 10 10 9 9 9
11 8 5 4 6 4 3 3 2 3 2 2 2 2 2 2 4 7 8 10 12 11 12 12 13 13 13 13 13 14 14 13 13 13 13 13 12 11 12 11 10 9 9
10 8 5 5 5 3 2 2 2 2 2 2 2 1 1 2 3 4 6 9 10 12 13 12 13 13 14 13 14 14 14 14 14 14 13 13 13 12 12 12 11 10 10
9 7 4 3 4 4 4 3 2 2 1 1 1 2 3 2 2 3 4 4 6 10 13 13 12 11 11 14 14 14 14 14 13 13 13 13 13 13 13 12 11 11 11
8 7 5 4 4 4 4 4 3 2 1 2 3 1 2 4 2 2 2 4 5 6 8 11 10 11 10 10 13 15 15 14 14 13 13 13 13 13 12 12 11 11 10
8 7 6 5 4 5 5 4 4 4 3 2 3 4 3 3 2 2 1 2 2 3 3 5 8 9 11 10 10 12 14 13 13 13 13 12 12 12 12 11 11 10 9
7 8 7 6 5 4 5 4 4 4 4 3 2 3 3 4 3 1 2 1 1 2 2 3 4 6 8 8 9 10 12 13 12 11 11 10 10 10 10 10 9 8 8
5 7 7 6 5 4 5 5 4 4 4 4 4 3 2 2 2 3 2 1 1 1 1 1 2 3 5 7 7 8 9 11 12 11 9 9 9 9 8 8 7 7 6
3 4 5 5 4 4 5 5 5 5 4 4 4 3 3 3 3 3 3 3 2 1 1 1 1 2 4 5 7 8 9 9 9 9 9 8 8 8 7 7 6 6 6
3 5 4 4 4 4 4 4 4 4 4 4 4 4 4 4 3 4 4 3 2 1 0 1 1 2 3 4 5 7 8 9 9 9 8 7 7 7 7 6 6 6 6
4 4 3 3 3 3 3 3 3 3 3 3 4 4 3 3 3 4 4 4 2 1 0 1 1 2 3 4 5 7 7 9 9 9 9 9 9 9 8 8 7 7 7
3 3 2 2 3 3 3 3 2 3 3 3 3 3 2 2 3 3 4 5 5 3 2 2 2 1 4 5 5 6 7 10 10 11 10 10 11 10 10 9 8 9 9
3 2 3 3 2 2 2 3 2 2 2 2 2 2 2 2 2 3 3 4 4 4 3 2 2 2 5 6 7 8 8 10 10 11 11 11 11 10 10 9 10 10 10
3 3 3 3 2 2 2 3 2 2 2 2 2 2 2 2 2 2 3 3 3 4 3 1 1 2 3 4 7 8 8 8 9 10 11 10 10 10 10 11 11 11 12
2 2 2 2 2 1 2 2 2 1 1 1 1 1 2 1 2 1 2 3 3 4 5 4 2 2 3 5 6 7 7 7 8 9 10 10 10 11 11 12 12 12 11
2 2 2 2 1 1 2 2 2 2 2 1 1 2 2 2 1 1 2 2 3 3 4 6 4 2 2 4 5 6 6 6 7 8 9 9 10 11 12 12 12 11 11
3 3 2 2 2 2 2 1 2 2 2 1 0 1 1 2 2 2 2 3 4 4 5 6 5 3 3 3 4 5 4 2 3 5 7 8 9 9 9 10 10 10 9
4 3 4 3 3 2 2 2 2 3 3 2 2 2 2 2 3 2 3 3 5 5 5 5 5 4 4 4 4 3 4 3 2 2 3 4 5 5 5 6 7 8 8
4 5 4 4 4 2 3 4 4 3 3 3 3 3 3 4 5 6 5 5 6 6 6 5 4 5 5 4 4 5 4 3 2 2 3 1 2 2 2 4 7 8 8
5 5 4 4 4 3 4 5 6 5 5 4 3 3 4 5 6 6 8 8 6 5 6 6 6 5 5 6 6 5 4 3 2 3 3 2 1 1 4 5 7 7 7
4 4 4 4 4 3 5 6 7 6 6 5 4 4 4 4 4 6 7 7 6 5 4 4 4 4 5 6 7 6 6 4 3 2 3 2 2 2 3 4 7 8 8
4 3 3 4 4 3 5 6 7 5 5 5 4 4 4 4 5 7 8 7 6 5 8 9 9 8 8 10 10 6 5 5 2 0 1 3 2 1 1 2 7 8 9
4 4 4 3 3 3 3 5 6 5 5 4 4 4 5 5 6 7 6 7 6 4 5 6 7 8 8 8 8 6 6 5 3 2 2 3 3 2 1 1 3 6 7
Wind_Direction
163 166 172 179 182 184 183 190 218 235 209 184 177 167 158 155 161 164 171 175 176 177 177 174 173 173 172 174 174 173 173 173 172 173 172 173 172 171 170 167 167 168 166
166 169 174 181 191 191 188 187 200 196 187 175 179 171 165 162 168 171 174 180 184 184 184 183 182 182 182 183 185 184 183 183 183 184 183 183 183 183 182 180 179 179 177
168 165 167 178 196 194 189 183 188 167 171 160 176 172 167 171 174 179 182 185 188 191 191 191 191 192 192 192 192 193 191 191 192 192 192 192 193 194 192 191 192 187 186
172 166 169 190 198 192 178 166 163 147 162 162 188 195 178 177 176 185 187 189 191 195 199 200 198 198 202 203 203 201 201 202 202 200 200 200 200 201 198 196 198 198 198
177 174 180 189 184 171 173 183 161 161 183 193 201 203 197 180 182 188 191 196 197 196 196 202 204 206 208 212 214 210 208 209 209 208 209 208 207 205 203 203 205 207 208
179 177 182 188 175 155 171 178 168 173 184 190 210 232 244 212 195 195 198 198 200 201 202 205 208 213 215 217 218 215 212 211 213 214 214 213 211 208 208 208 209 211 213
181 180 180 175 170 167 181 178 166 174 206 165 93 348 330 316 222 208 201 193 201 204 203 206 205 208 217 223 223 219 215 213 213 215 215 214 214 213 212 212 212 214 216
186 185 175 181 179 175 184 185 171 165 214 168 145 123 337 336 329 245 201 197 207 203 201 204 205 207 213 214 220 221 219 218 217 217 216 216 216 215 214 214 215 216 218
196 196 187 180 184 183 192 198 182 174 198 219 175 157 166 224 283 317 267 215 187 187 195 191 201 205 208 209 213 219 218 218 219 217 215 213 214 216 217 216 216 213 211
200 201 195 187 185 187 194 203 191 183 177 207 220 201 186 168 171 269 336 343 200 185 194 187 188 199 204 205 206 210 214 216 216 213 208 205 206 208 210 209 203 197 195
205 202 196 192 193 198 203 205 195 193 190 194 200 202 199 187 172 170 230 308 351 322 204 177 157 180 198 201 200 200 201 206 207 204 200 197 192 189 188 190 187 181 174
213 207 201 193 192 200 208 206 203 199 202 198 197 190 181 180 191 182 200 214 226 291 34 107 145 162 180 184 187 187 186 187 185 185 188 188 184 180 177 176 172 161 157
211 219 212 194 196 207 206 196 197 202 202 202 203 204 201 201 185 176 176 191 205 230 42 47 80 136 147 154 167 171 172 171 173 170 165 163 158 155 153 154 151 146 141
210 210 196 189 193 195 199 189 195 201 201 212 217 210 210 211 190 181 176 165 174 240 206 200 43 95 129 138 143 152 150 156 155 149 147 145 140 136 131 129 130 132 127
200 198 189 200 202 192 192 187 197 211 194 208 214 210 216 223 197 191 182 171 170 197 227 210 192 131 127 124 134 140 142 144 146 141 137 135 132 128 123 122 119 120 118
194 184 189 195 198 196 188 188 206 208 186 215 218 203 210 223 206 186 186 187 179 182 207 205 192 156 134 131 125 121 129 133 136 137 135 132 131 130 128 125 122 121 117
174 177 186 186 187 201 198 189 204 196 193 221 242 207 221 204 204 205 190 189 182 167 178 189 138 135 130 130 118 116 118 118 121 127 129 130 131 131 129 128 126 124 122
161 169 167 161 173 186 182 177 187 186 174 211 236 210 231 198 189 201 183 183 182 169 160 163 156 146 135 139 127 120 116 115 116 123 130 134 136 137 134 131 129 128 126
137 128 130 136 122 107 121 135 145 147 149 185 197 192 207 169 187 194 175 166 163 150 140 151 155 134 122 132 122 114 109 107 113 118 122 130 136 135 132 130 128 128 127
134 122 107 106 100 96 105 120 130 133 122 117 119 154 165 166 187 175 158 152 143 137 134 142 143 138 129 127 129 130 120 100 110 115 116 121 126 129 134 136 135 134 132
120 111 101 89 78 78 83 108 119 123 115 94 68 63 76 108 134 151 155 154 146 142 139 141 142 140 144 150 154 143 136 123 80 115 115 119 122 124 140 148 150 149 146
104 97 96 95 82 69 73 104 109 105 101 97 84 66 64 67 80 87 103 122 137 146 153 149 151 159 164 154 141 143 143 141 164 175 131 129 135 147 187 180 168 162 161
113 105 100 100 96 73 82 90 95 100 90 82 77 72 73 68 74 83 79 79 87 118 141 152 157 166 166 167 154 153 156 146 164 171 135 159 168 185 217 192 184 183 183
117 115 111 107 98 77 78 85 90 86 81 72 69 77 89 75 78 95 92 78 65 59 85 115 145 156 158 162 164 160 152 121 84 94 146 161 187 205 219 213 210 208 209
116 112 110 107 102 81 79 95 101 96 88 73 65 66 84 87 91 101 101 95 80 62 72 92 101 113 130 143 143 129 130 130 115 164 164 152 174 175 191 236 229 223 225
129 126 114 112 114 106 99 111 111 112 105 89 67 57 67 91 101 105 112 115 109 98 93 87 82 82 94 116 137 149 155 150 137 165 203 154 154 144 164 261 232 227 232
Height
1567 1568 1570 1571 1572 1573 1574 1574 1575 1576 1577 1578 1579 1579 1580 1580 1580 1581 1581 1581 1581 1582 1582 1583 1583 1584 1585 1585 1586 1587 1587 1588 1588 1589 1590 1590 1591 1591 1592 1592 1593 1593 1594
1567 1569 1570 1571 1572 1573 1574 1575 1576 1577 1578 1578 1579 1580 1580 1580 1580 1580 1581 1581 1581 1582 1582 1582 1583 1584 1584 1585 1586 1586 1587 1587 1588 1589 1589 1590 1590 1591 1592 1592 1593 1593 1593
1567 1569 1570 1571 1572 1574 1575 1576 1577 1577 1578 1578 1579 1579 1580 1580 1580 1580 1580 1581 1581 1581 1582 1582 1583 1583 1584 1585 1585 1586 1586 1587 1587 1588 1589 1589 1590 1590 1591 1591 1592 1592 1593
1567 1568 1570 1571 1572 1573 1574 1575 1576 1577 1578 1578 1578 1579 1579 1580 1580 1580 1580 1580 1580 1581 1581 1582 1582 1582 1583 1583 1584 1585 1585 1586 1586 1587 1587 1588 1589 1589 1590 1590 1591 1591 1591
1566 1568 1569 1570 1571 1572 1574 1574 1575 1576 1577 1577 1578 1578 1578 1579 1579 1579 1579 1579 1580 1580 1580 1581 1581 1581 1582 1582 1582 1583 1584 1584 1585 1585 1586 1587 1587 1588 1588 1589 1589 1590 1590
1565 1567 1568 1569 1570 1571 1572 1573 1574 1575 1576 1576 1577 1577 1577 1577 1577 1577 1578 1578 1578 1579 1579 1580 1580 1580 1580 1580 1581 1581 1582 1583 1583 1584 1584 1585 1586 1586 1586 1587 1587 1588 1588
1564 1565 1566 1567 1569 1570 1571 1572 1573 1573 1574 1575 1575 1575 1576 1576 1576 1576 1576 1576 1577 1577 1578 1578 1578 1578 1578 1578 1579 1579 1580 1580 1581 1582 1582 1583 1584 1584 1585 1585 1586 1586 1586
1563 1564 1565 1566 1567 1568 1569 1570 1571 1571 1572 1573 1573 1574 1574 1575 1574 1574 1574 1574 1574 1575 1575 1576 1576 1576 1576 1576 1577 1577 1578 1578 1579 1580 1580 1581 1581 1582 1582 1583 1583 1584 1584
1561 1562 1563 1564 1565 1566 1567 1567 1568 1569 1570 1571 1571 1572 1572 1571 1572 1572 1572 1572 1572 1572 1572 1573 1573 1574 1574 1574 1575 1575 1575 1576 1576 1577 1577 1578 1579 1579 1580 1580 1581 1581 1582
1559 1560 1561 1562 1563 1564 1564 1565 1566 1566 1567 1568 1569 1569 1570 1569 1570 1569 1570 1569 1569 1570 1570 1570 1571 1571 1572 1572 1572 1572 1573 1573 1574 1574 1575 1576 1576 1577 1577 1578 1578 1579 1579
1557 1558 1559 1559 1560 1561 1561 1562 1563 1563 1564 1564 1565 1566 1566 1567 1567 1567 1567 1567 1567 1567 1568 1568 1568 1568 1569 1569 1569 1570 1570 1571 1571 1572 1572 1573 1573 1574 1575 1575 1576 1576 1576
1554 1555 1556 1557 1557 1558 1559 1559 1560 1560 1560 1561 1562 1562 1563 1563 1564 1564 1564 1564 1565 1565 1565 1566 1566 1566 1566 1566 1566 1567 1568 1568 1569 1569 1570 1570 1571 1571 1572 1573 1573 1573 1574
1551 1552 1553 1553 1554 1555 1555 1556 1556 1556 1557 1558 1558 1559 1559 1560 1561 1561 1561 1561 1562 1562 1563 1563 1563 1563 1563 1564 1564 1564 1565 1566 1566 1567 1567 1568 1568 1569 1569 1570 1570 1571 1571
1548 1549 1550 1550 1551 1552 1552 1552 1553 1553 1553 1554 1554 1555 1555 1556 1557 1557 1558 1558 1559 1559 1559 1560 1560 1560 1561 1561 1561 1562 1562 1563 1563 1564 1565 1565 1566 1566 1567 1567 1568 1568 1568
1546 1546 1547 1547 1548 1549 1549 1549 1549 1549 1550 1550 1551 1551 1551 1552 1553 1553 1554 1555 1556 1555 1555 1556 1557 1557 1557 1558 1559 1559 1559 1560 1561 1561 1562 1563 1563 1564 1564 1565 1565 1566 1566
1543 1543 1544 1545 1545 1545 1546 1546 1545 1546 1547 1547 1547 1548 1548 1548 1549 1549 1550 1550 1551 1552 1551 1552 1553 1554 1555 1555 1556 1557 1557 1558 1558 1559 1559 1560 1561 1562 1562 1563 1563 1563 1563
1541 1541 1542 1542 1543 1543 1543 1543 1543 1543 1543 1543 1544 1544 1544 1545 1545 1545 1546 1546 1547 1548 1547 1548 1550 1551 1552 1552 1553 1554 1555 1555 1556 1557 1557 1558 1559 1560 1560 1560 1561 1561 1561
1539 1539 1540 1540 1540 1540 1540 1540 1540 1540 1540 1541 1541 1541 1541 1541 1541 1541 1542 1542 1543 1543 1544 1544 1546 1547 1549 1550 1550 1551 1552 1553 1554 1555 1556 1556 1557 1558 1558 1559 1559 1559 1559
1537 1538 1538 1538 1538 1538 1538 1538 1538 1538 1538 1538 1538 1538 1538 1538 1538 1538 1538 1538 1539 1540 1541 1541 1542 1544 1546 1547 1548 1549 1550 1551 1552 1553 1554 1555 1555 1556 1556 1557 1557 1558 1558
1536 1536 1537 1537 1536 1536 1536 1536 1536 1536 1536 1536 1536 1536 1536 1536 1535 1535 1536 1536 1536 1536 1537 1538 1539 1541 1542 1544 1545 1546 1547 1548 1549 1551 1551 1552 1553 1554 1555 1555 1556 1556 1556
1535 1535 1535 1535 1535 1535 1535 1535 1535 1534 1534 1534 1534 1534 1534 1533 1533 1533 1533 1533 1533 1533 1534 1535 1536 1537 1539 1540 1542 1543 1544 1546 1547 1549 1549 1550 1551 1552 1553 1554 1554 1555 1555
1534 1534 1534 1534 1534 1534 1534 1534 1533 1533 1533 1533 1532 1532 1532 1531 1531 1531 1531 1531 1532 1532 1532 1532 1533 1535 1536 1538 1539 1541 1542 1543 1544 1547 1548 1549 1550 1551 1552 1553 1553 1554 1554
1533 1533 1533 1533 1533 1533 1533 1533 1532 1532 1531 1531 1531 1531 1530 1530 1530 1530 1530 1530 1530 1531 1531 1532 1532 1533 1535 1536 1537 1539 1541 1542 1543 1545 1547 1547 1549 1550 1551 1552 1553 1554 1554
1532 1532 1532 1532 1532 1532 1532 1532 1532 1531 1531 1531 1531 1531 1530 1530 1529 1529 1529 1529 1529 1530 1530 1531 1532 1532 1533 1535 1536 1538 1539 1541 1542 1544 1546 1546 1548 1549 1550 1551 1552 1552 1553
1531 1531 1531 1531 1531 1531 1531 1531 1531 1530 1530 1530 1530 1530 1530 1529 1529 1529 1529 1528 1529 1529 1530 1530 1531 1532 1533 1534 1536 1537 1538 1539 1540 1542 1544 1545 1546 1548 1549 1550 1550 1551 1551
1530 1530 1530 1531 1530 1530 1530 1530 1530 1530 1529 1529 1529 1529 1529 1529 1529 1529 1529 1528 1528 1529 1530 1530 1531 1532 1533 1534 1535 1537 1538 1538 1539 1541 1542 1543 1544 1546 1547 1548 1548 1549 1550